Louisville Bowman, KY

5:00 PM EDT on August 22, 2019 (GMT -0400)
Bowman

Weather History for KLOU - May, 2019

Change the Weather History Date:

Wednesday, May 1, 2019

  Actual Average Record
Temperature  
Mean Temperature 73 °F 62 °F  
Max Temperature 82 °F 72 °F 92 °F (1951)
Min Temperature 64 °F 52 °F 31 °F (1963)
Degree Days  
Heating Degree Days 0 5  
Month to date heating degree days 0 5  
Since 1 July heating degree days 4054 4196  
Cooling Degree Days 8 1  
Month to date cooling degree days 8 1  
Year to date cooling degree days 25 35  
Growing Degree Days 24 (Base 50)    
Moisture  
Dew Point 60 °F    
Average Humidity 70    
Maximum Humidity 93    
Minimum Humidity 47    
Precipitation  
Precipitation 0.09 in 0.19 in 2.34 in (1983)
Month to date precipitation 0.09 0.19  
Year to date precipitation 23.50 14.99  
Sea Level Pressure  
Sea Level Pressure 30.04 in    
Wind  
Wind Speed 11 mph (SSW)    
Max Wind Speed 26 mph    
Max Gust Speed 39 mph    
Visibility 10 miles    
Events Rain    
T = Trace of Precipitation, MM = Missing Value Source: NWS Daily Summary

Daily Weather History Graph

Daily Weather History Graph

Search for Another Location

Airport or City:

Astronomy

May. 01, 2019 Rise Set
Actual Time 6:46 AM EDT 8:33 PM EDT
Civil Twilight 6:17 AM EDT 9:02 PM EDT
Nautical Twilight 5:43 AM EDT 9:36 PM EDT
Astronomical Twilight 5:06 AM EDT 10:13 PM EDT
Moon 5:26 AM EDT (5/1) 5:25 PM EDT (5/1)
Length of Visible Light 14h 44m
Length of Day
13h 47m
Waning Crescent, 11% of the Moon is Illuminated
May 1
Waning Crescent
May 4
New
May 11
First Quarter
May 18
Full
May 26
Last Quarter

Hourly Weather History & Observations

Time (EDT) Temp. Heat Index Dew Point Humidity Pressure Visibility Wind Dir Wind Speed Gust Speed Precip Events Conditions
12:53 AM 68.0 °F - 55.9 °F 65% 30.03 in 10.0 mi SSE 6.9 mph - N/A   Clear
1:53 AM 66.9 °F - 55.9 °F 68% 30.03 in 10.0 mi SSE 6.9 mph - N/A   Clear
2:53 AM 66.9 °F - 55.9 °F 68% 30.02 in 10.0 mi South 6.9 mph - N/A   Clear
3:53 AM 66.9 °F - 55.9 °F 68% 30.02 in 10.0 mi South 6.9 mph - N/A   Clear
4:53 AM 68.0 °F - 57.0 °F 68% 30.00 in 10.0 mi South 9.2 mph - N/A   Scattered Clouds
5:53 AM 68.0 °F - 57.9 °F 70% 30.00 in 10.0 mi South 9.2 mph - N/A   Mostly Cloudy
6:53 AM 68.0 °F - 57.9 °F 70% 30.02 in 10.0 mi South 10.4 mph - N/A   Clear
7:53 AM 69.1 °F - 59.0 °F 70% 30.05 in 10.0 mi South 9.2 mph - N/A   Clear
8:53 AM 71.1 °F - 61.0 °F 70% 30.05 in 10.0 mi South 12.7 mph - N/A   Clear
9:53 AM 73.9 °F - 62.1 °F 66% 30.05 in 10.0 mi South 12.7 mph - N/A   Clear
10:53 AM 75.0 °F - 61.0 °F 62% 30.06 in 10.0 mi SSW 21.9 mph 31.1 mph N/A   Clear
11:53 AM 77.0 °F - 60.1 °F 56% 30.06 in 10.0 mi SSW 18.4 mph 35.7 mph N/A   Partly Cloudy
12:53 PM 78.1 °F - 61.0 °F 56% 30.04 in 10.0 mi SSW 21.9 mph 35.7 mph N/A   Clear
1:53 PM 81.0 °F 81.6 °F 60.1 °F 49% 30.05 in 10.0 mi SSW 20.7 mph 33.4 mph N/A   Scattered Clouds
2:53 PM 81.0 °F 81.6 °F 60.1 °F 49% 30.05 in 10.0 mi SSW 17.3 mph 29.9 mph N/A   Mostly Cloudy
3:53 PM 80.1 °F 80.9 °F 60.1 °F 50% 30.04 in 10.0 mi SW 18.4 mph 27.6 mph N/A   Mostly Cloudy
4:53 PM 82.0 °F 82.4 °F 60.1 °F 47% 30.01 in 10.0 mi SSW 17.3 mph 25.3 mph N/A   Partly Cloudy
5:53 PM 79.0 °F - 61.0 °F 54% 30.02 in 10.0 mi SSW 11.5 mph - 0.00 in Rain Light Rain
6:53 PM 78.1 °F - 60.1 °F 54% 30.03 in 10.0 mi SSW 12.7 mph 20.7 mph 0.00 in   Partly Cloudy
7:53 PM 75.9 °F - 61.0 °F 60% 30.05 in 7.0 mi WSW 13.8 mph - 0.01 in Rain Light Rain
8:53 PM 66.9 °F - 64.0 °F 90% 30.08 in 8.0 mi South 4.6 mph - 0.06 in Rain Light Rain
9:53 PM 66.9 °F - 64.0 °F 90% 30.06 in 10.0 mi Calm Calm - 0.00 in   Overcast
10:53 PM 66.9 °F - 64.9 °F 93% 30.07 in 10.0 mi Calm Calm - 0.02 in Rain Light Rain
11:53 PM 64.9 °F - 64.0 °F 97% 30.09 in 9.0 mi Calm Calm - 0.00 in   Overcast